This demonstration page uses our WeatherBlox Daily Observations layout. Learn more.

Left ArrowRight Arrow

38.89511, -77.03637

Hourly Observations for February 17, 2017

Temp ( °F °C ) Dew Point ( °F °C ) Humidity (%) Winds ( mph kmh ) Pressure ( in mb ) Visibility ( mi km ) Precip ( " mm )
12:52 am 00:52 Clear 30 -1.1 15 -9.4 54 54 NW 6 9 29.96 1015 10 16 0.00 0.00
1:52 am 01:52 Clear 31 -0.6 15 -9.4 52 52 Calm 29.97 1015 10 16 0.00 0.00
2:52 am 02:52 Clear 30 -1.1 15 -9.4 54 54 W 5 7 29.97 1015 10 16 0.00 0.00
3:52 am 03:52 Clear 30 -1.1 15 -9.4 54 54 W 3 6 29.96 1015 10 16 0.00 0.00
4:52 am 04:52 Mostly Clear 31 -0.6 15 -9.4 52 52 Calm 29.97 1015 10 16 0.00 0.00
5:52 am 05:52 Partly Cloudy 29 -1.7 16 -8.9 58 58 NNW 6 9 29.98 1015 10 16 0.00 0.00
6:52 am 06:52 Mostly Cloudy 30 -1.1 16 -8.9 56 56 W 5 7 29.99 1016 10 16 0.00 0.00
7:52 am 07:52 Mostly Cloudy 34 1.1 17 -8.3 50 50 NW 8 13 29.99 1016 10 16 0.00 0.00
8:52 am 08:52 Cloudy 34 1.1 17 -8.3 50 50 N 7 11 29.99 1016 10 16 0.00 0.00
9:52 am 09:52 Cloudy 36 2.2 18 -7.8 48 48 S 6 9 29.99 1016 10 16 0.00 0.00
10:52 am 10:52 Mostly Cloudy 37 2.8 21 -6.1 52 52 SSE 5 7 29.99 1016 10 16 0.00 0.00
11:52 am 11:52 Partly Cloudy 40 4.4 19 -7.2 43 43 ESE 3 6 29.96 1015 10 16 0.00 0.00
12:52 pm 12:52 Partly Cloudy 44 6.7 19 -7.2 37 37 ENE 3 6 29.92 1013 10 16 0.00 0.00
1:52 pm 13:52 Mostly Sunny 46 7.8 19 -7.2 34 34 SSE 3 6 29.89 1012 10 16 0.00 0.00
2:52 pm 14:52 Mostly Sunny 49 9.4 20 -6.7 32 32 SE 3 6 29.88 1012 10 16 0.00 0.00
3:52 pm 15:52 Partly Cloudy 50 10 22 -5.6 33 33 SSE 7 11 29.88 1012 10 16 0.00 0.00
4:52 pm 16:52 Partly Cloudy 50 10 24 -4.4 36 36 SSE 3 6 29.88 1012 10 16 0.00 0.00
5:52 pm 17:52 Mostly Cloudy 49 9.4 24 -4.4 38 38 E 5 7 29.87 1012 10 16 0.00 0.00
6:23 pm 18:23 Mostly Clear 48 8.9 23 -5 37 37 SE 3 6 29.88 1012 10 16 0.00 0.00
6:52 pm 18:52 Mostly Clear 45 7.2 26 -3.3 48 48 SE 8 13 29.89 1012 10 16 0.00 0.00
7:52 pm 19:52 Clear 45 7.2 25 -3.9 46 46 Calm 29.91 1013 10 16 0.00 0.00
8:52 pm 20:52 Clear 43 6.1 26 -3.3 51 51 SE 5 7 29.93 1013 10 16 0.00 0.00
9:52 pm 21:52 Clear 40 4.4 29 -1.7 65 65 S 3 6 29.93 1014 10 16 0.00 0.00
10:52 pm 22:52 Mostly Clear 39 3.9 28 -2.2 65 65 Calm 29.91 1013 10 16 0.00 0.00
11:52 pm 23:52 Clear 38 3.3 29 -1.7 70 70 N 5 7 29.91 1013 10 16 0.00 0.00

Powered by AerisWeather